カタログに戻る

KOMPASS

運用中科学SSO
NORAD 27002·PAYLOAD·🇷🇺 Russia

打ち上げ Dec 10, 2001 から Baikonur Cosmodrome

Loading…

次のパス (今後24時間)

TLE

最新Source: Space-Track

元期: Sep 14, 2026, 11:35 UTC

1 27002U 01056B   26257.48280751 -.00000018  00000-0  32476-4 0  9996
2 27002  99.8029  73.9417 0018635 265.5055 118.5497 13.70649096238476

AllMySatでKOMPASSをリアルタイム追跡

Download on the App Store